Find Starlink 5508

NORAD ID: 55639 Int'l Des: 2023-021 Owner: SPXS Country: US Constellation: starlink operational
LEOCIRCULAR

Live Position

Loading 3D Globe...

About Starlink 5508

Description loading...

Upcoming Passes

Passes for default location (London). Set your location on the main map for personalized predictions.

Altitude History

Loading altitude history...

Two-Line Element Set

1 55639U 23021M 26121.91012514 .00002535 00000-0 22017-3 0 9991
2 55639 70.0006 50.2573 0002988 271.4139 88.6678 14.98328337176767
Epoch: May 1, 2026 • Age: 9 hours

Current Status

Altitude 580.2 km
Velocity 7.57 km/s
Sub-Earth Point 46.39°N, 109.64°W
Launch Date Feb 17, 2023
Age 3.2 years
Type internet

Technical Details

Classification Payload
Mass 305.00 kg
Dry Mass 290.00 kg
Total Mass 305.00 kg
Length 0.20 m
Diameter 2.80 m
Span 9.00 m
Shape Box + pan
Manufacturer SPXS
Bus Type Starlink
Phase Status In Orbit
Owner/State SPXS/US

Most Searched